TimeCST,TemperatureF,Dew PointF,Humidity,Sea Level PressureIn,VisibilityMPH,Wind Direction,Wind SpeedMPH,Gust SpeedMPH,PrecipitationIn,Events,Conditions,WindDirDegrees,DateUTC
12:54 AM,44.1,27.0,51,30.17,10.0,WNW,10.4,-,N/A,,Clear,300,2013-01-20 06:54:00
1:54 AM,41.0,28.4,61,30.20,10.0,NNW,13.8,19.6,N/A,,Clear,330,2013-01-20 07:54:00
2:54 AM,39.9,21.0,47,30.22,10.0,WNW,15.0,-,N/A,,Clear,300,2013-01-20 08:54:00
3:54 AM,37.0,19.9,50,30.25,10.0,NW,10.4,-,N/A,,Clear,320,2013-01-20 09:54:00
4:54 AM,34.0,18.0,52,30.27,10.0,North,11.5,17.3,N/A,,Clear,350,2013-01-20 10:54:00
5:54 AM,30.0,21.0,69,30.31,10.0,North,8.1,-,N/A,,Clear,350,2013-01-20 11:54:00
6:54 AM,28.0,17.1,63,30.33,10.0,North,5.8,-,N/A,,Clear,350,2013-01-20 12:54:00
7:54 AM,28.0,12.0,51,30.35,10.0,North,6.9,-,N/A,,Scattered Clouds,360,2013-01-20 13:54:00
8:54 AM,28.9,8.1,41,30.37,10.0,North,8.1,-,N/A,,Partly Cloudy,350,2013-01-20 14:54:00
9:54 AM,30.0,8.1,40,30.37,10.0,NNE,3.5,-,N/A,,Clear,30,2013-01-20 15:54:00
10:54 AM,32.0,10.0,40,30.36,10.0,NW,3.5,-,N/A,,Partly Cloudy,310,2013-01-20 16:54:00
11:54 AM,33.8,10.4,38,30.30,10.0,Calm,Calm,-,N/A,,Scattered Clouds,0,2013-01-20 17:54:00
12:54 PM,35.1,10.0,35,30.31,10.0,NW,9.2,-,N/A,,Scattered Clouds,310,2013-01-20 18:54:00
1:54 PM,35.1,8.1,33,30.32,10.0,NNW,9.2,-,N/A,,Mostly Cloudy,340,2013-01-20 19:54:00
2:54 PM,35.6,8.6,33,30.28,10.0,NNE,9.2,-,N/A,,Clear,20,2013-01-20 20:54:00
3:54 PM,32.0,10.0,40,30.32,10.0,North,9.2,-,N/A,,Mostly Cloudy,360,2013-01-20 21:54:00
4:54 PM,30.9,9.0,40,30.33,10.0,North,8.1,-,N/A,,Mostly Cloudy,10,2013-01-20 22:54:00
5:54 PM,30.0,10.0,43,30.32,10.0,NNE,3.5,-,N/A,,Mostly Cloudy,20,2013-01-20 23:54:00
6:54 PM,28.9,12.0,49,30.32,10.0,North,5.8,-,N/A,,Mostly Cloudy,360,2013-01-21 00:54:00
7:54 PM,28.0,12.9,53,30.33,10.0,North,9.2,-,N/A,,Mostly Cloudy,360,2013-01-21 01:54:00
8:54 PM,27.0,10.9,51,30.33,10.0,North,8.1,-,N/A,,Mostly Cloudy,360,2013-01-21 02:54:00
9:54 PM,27.0,10.9,51,30.34,10.0,NNW,10.4,-,N/A,,Overcast,340,2013-01-21 03:54:00
10:54 PM,26.1,10.0,51,30.34,10.0,NNW,10.4,-,N/A,,Overcast,330,2013-01-21 04:54:00
11:54 PM,24.1,9.0,53,30.34,10.0,NW,6.9,-,N/A,,Partly Cloudy,320,2013-01-21 05:54:00